Torna al catalogo

COSMOS 2251 DEB

AttivoLEO
NORAD 34672·DEBRIS·🇷🇺 Russia

Lanciato Jun 16, 1993 da Plesetsk Cosmodrome

Loading…

Prossimi Passaggi (prossime 24 ore)

TLE

AggiornatoSource: Space-Track

Epoca: Sep 14, 2026, 02:46 UTC

1 34672U 93036XS  26257.11589388  .00000352  00000-0  12775-3 0  9993
2 34672  74.0340 159.4894 0024413 171.0178 257.5010 14.36731059691321

Traccia COSMOS 2251 DEB in tempo reale con AllMySat

Download on the App Store